Mt. Pocono, PA

8:19 AM EST on December 10, 2019 (GMT -0500)
Pocono Mountains Municipal

Weather History for KMPO - October, 2019

Change the Weather History Date:

Sunday, October 6, 2019

  Actual Average Record
Temperature  
Mean Temperature 52 °F 51 °F  
Max Temperature 61 °F 60 °F 82 °F (1946)
Min Temperature 43 °F 42 °F 21 °F (1965)
Degree Days  
Heating Degree Days 13 14  
Month to date heating degree days 65 79  
Since 1 July heating degree days 243 347  
Cooling Degree Days 0 0  
Month to date cooling degree days 5 0  
Year to date cooling degree days 348 313  
Growing Degree Days 2 (Base 50)    
Moisture  
Dew Point 53 °F    
Average Humidity 98    
Maximum Humidity 100    
Minimum Humidity 89    
Precipitation  
Precipitation 0.17 in 0.16 in 4.50 in (1932)
Month to date precipitation 0.82 0.97  
Year to date precipitation 37.04 37.31  
Sea Level Pressure  
Sea Level Pressure 30.28 in    
Wind  
Wind Speed 7 mph ()    
Max Wind Speed 16 mph    
Max Gust Speed 22 mph    
Visibility 4.5 miles    
Events Rain    
T = Trace of Precipitation, MM = Missing Value Source: Averaged Metar Reports

Daily Weather History Graph

Daily Weather History Graph

Search for Another Location

Airport or City:

Astronomy

Oct. 06, 2019 Rise Set
Actual Time 7:03 AM EDT 6:35 PM EDT
Civil Twilight 6:35 AM EDT 7:03 PM EDT
Nautical Twilight 6:03 AM EDT 7:34 PM EDT
Astronomical Twilight 5:31 AM EDT 8:06 PM EDT
Moon 3:16 PM EDT (10/6) No Moon Set
Length of Visible Light 12h 27m
Length of Day
11h 32m
First Quarter, 59% of the Moon is Illuminated
Oct 6
First Quarter
Oct 13
Full
Oct 21
Last Quarter
Oct 27
New
Nov 4
First Quarter

Hourly Weather History & Observations

Time (EDT) Temp. Windchill Dew Point Humidity Pressure Visibility Wind Dir Wind Speed Gust Speed Precip Events Conditions
12:05 AM 43.0 °F 38.8 °F 39.9 °F 89% 30.32 in 10.0 mi SE 6.9 mph - N/A   Mostly Cloudy
12:32 AM 43.0 °F 39.5 °F 39.9 °F 89% 30.31 in 10.0 mi SE 5.8 mph - N/A   Scattered Clouds
12:53 AM 44.1 °F 40.1 °F 41.0 °F 89% 30.34 in 10.0 mi SE 6.9 mph - N/A   Mostly Cloudy
1:53 AM 45.0 °F 40.1 °F 43.0 °F 93% 30.34 in 10.0 mi SE 9.2 mph - N/A   Overcast
2:53 AM 45.0 °F 41.8 °F 44.1 °F 97% 30.33 in 10.0 mi Variable 5.8 mph - N/A   Overcast
3:01 AM 46.0 °F 43.1 °F 44.1 °F 93% 30.30 in 10.0 mi ESE 5.8 mph - N/A   Overcast
3:53 AM 46.9 °F - 45.0 °F 93% 30.31 in 10.0 mi SE 9.2 mph - N/A   Overcast
4:53 AM 48.0 °F - 46.0 °F 93% 30.30 in 10.0 mi SE 10.4 mph - N/A   Overcast
5:53 AM 48.9 °F - 46.9 °F 93% 30.30 in 9.0 mi SSE 6.9 mph 18.4 mph N/A   Overcast
6:27 AM 48.9 °F - 48.0 °F 97% 30.29 in 5.0 mi SSE 6.9 mph - N/A   Overcast
6:45 AM 48.0 °F - 48.0 °F 100% 30.30 in 3.0 mi SSE 5.8 mph - N/A   Overcast
6:53 AM 48.0 °F - 48.0 °F 100% 30.33 in 3.0 mi SSE 5.8 mph - N/A   Overcast
7:12 AM 48.9 °F - 48.9 °F 100% 30.29 in 3.0 mi SE 8.1 mph - N/A   Overcast
7:24 AM 48.0 °F - 48.0 °F 100% 30.28 in 2.5 mi SE 6.9 mph - N/A   Overcast
7:53 AM 48.0 °F - 48.0 °F 100% 30.31 in 1.5 mi SE 9.2 mph - N/A   Overcast
8:53 AM 50.0 °F - 50.0 °F 100% 30.32 in 1.5 mi SSE 10.4 mph - 0.01 in Rain Light Rain
9:30 AM 51.1 °F - 51.1 °F 100% 30.29 in 2.0 mi SSE 10.4 mph - 0.01 in Rain Light Rain
9:53 AM 52.0 °F - 52.0 °F 100% 30.32 in 1.8 mi South 6.9 mph 18.4 mph 0.02 in Rain Light Rain
10:29 AM 52.0 °F - 52.0 °F 100% 30.30 in 2.0 mi SSE 6.9 mph 16.1 mph 0.01 in   Overcast
10:39 AM 52.0 °F - 52.0 °F 100% 30.30 in 1.8 mi SSE 6.9 mph - 0.01 in   Overcast
10:53 AM 53.1 °F - 53.1 °F 100% 30.32 in 1.8 mi SSE 9.2 mph - 0.02 in Rain Light Rain
11:09 AM 53.1 °F - 53.1 °F 100% 30.29 in 2.0 mi SSE 9.2 mph - 0.00 in Rain Light Rain
11:30 AM 53.1 °F - 53.1 °F 100% 30.28 in 1.8 mi SSE 6.9 mph - 0.00 in Rain Light Rain
11:53 AM 54.0 °F - 54.0 °F 100% 30.31 in 2.0 mi South 8.1 mph 17.3 mph 0.01 in Rain Light Rain
12:53 PM 54.0 °F - 54.0 °F 100% 30.30 in 2.0 mi South 9.2 mph - 0.01 in   Overcast
1:53 PM 55.9 °F - 55.9 °F 100% 30.28 in 2.5 mi South 8.1 mph - 0.00 in   Overcast
2:53 PM 57.0 °F - 57.0 °F 100% 30.27 in 2.5 mi South 6.9 mph - 0.01 in Rain Light Rain
3:03 PM 57.0 °F - 57.0 °F 100% 30.25 in 3.0 mi South 6.9 mph 17.3 mph 0.00 in Rain Light Rain
3:14 PM 57.0 °F - 57.0 °F 100% 30.25 in 2.5 mi South 6.9 mph - 0.01 in Rain Light Rain
3:24 PM 57.0 °F - 57.0 °F 100% 30.24 in 3.0 mi South 8.1 mph - 0.01 in Rain Light Rain
3:53 PM 57.0 °F - 57.0 °F 100% 30.25 in 4.0 mi South 10.4 mph - 0.02 in Rain Light Rain
4:49 PM 57.2 °F - 57.2 °F 100% 30.24 in 2.5 mi South 8.1 mph - 0.00 in Rain Light Rain
4:53 PM 57.9 °F - 57.9 °F 100% 30.25 in 2.5 mi Variable 6.9 mph - 0.00 in Rain Light Rain
5:15 PM 57.9 °F - 57.9 °F 100% 30.24 in 3.0 mi South 10.4 mph - 0.01 in Rain Light Rain
5:53 PM 57.9 °F - 57.9 °F 100% 30.25 in 3.0 mi South 8.1 mph - 0.01 in   Overcast
6:07 PM 57.9 °F - 57.9 °F 100% 30.23 in 2.0 mi SSE 8.1 mph - N/A   Overcast
6:28 PM 57.9 °F - 57.9 °F 100% 30.23 in 4.0 mi Variable 5.8 mph - 0.01 in   Overcast
6:53 PM 57.9 °F - 57.9 °F 100% 30.24 in 4.0 mi South 4.6 mph - 0.01 in   Overcast
7:53 PM 59.0 °F - 59.0 °F 100% 30.24 in 3.0 mi South 8.1 mph - 0.01 in Rain Light Rain
8:53 PM 60.1 °F - 60.1 °F 100% 30.23 in 4.0 mi South 11.5 mph - 0.01 in Rain Light Rain
9:30 PM 60.1 °F - 60.1 °F 100% 30.24 in 4.0 mi SSW 8.1 mph - 0.01 in Rain Light Rain
9:53 PM 60.1 °F - 60.1 °F 100% 30.24 in 4.0 mi South 6.9 mph - 0.02 in Rain Light Rain
10:23 PM 60.1 °F - 60.1 °F 100% 30.23 in 4.0 mi South 9.2 mph - 0.01 in Rain Light Rain
10:49 PM 60.8 °F - 60.8 °F 100% 30.23 in 10.0 mi SSW 13.8 mph 21.9 mph 0.01 in   Overcast
10:53 PM 61.0 °F - 61.0 °F 100% 30.23 in 10.0 mi SSW 15.0 mph 21.9 mph 0.01 in   Overcast
11:53 PM 60.1 °F - 60.1 °F 100% 30.22 in 4.0 mi South 10.4 mph - 0.00 in   Overcast